Location: Arbon
(43.0005°N, 0.7472°E)
Time: 10:30:35
(UTC+00:00)

Cosmos 1821 Rocket - Pass Details

Date: 22 April 2026
Orbit: 945 x 1003 km, 82.9° (Epoch: 20 May)

Event Time Altitude Azimuth Distance (km) Brightness Sun altitude
Rises 19:32:40 0° 177° (S) 3,659 6.7 -8.5°
Reaches altitude 10° 19:35:10 10° 175° (S) 2,724 6.0 -8.9°
Maximum altitude 19:41:22 69° 94° (E) 1,058 4.0 -9.9°
Drops below altitude 10° 19:47:41 10° 13° (NNE) 2,775 6.6 -10.9°
Sets 19:50:15 0° 11° (N) 3,733 7.3 -11.3°
